This is the latest recevied weather packets stored in our database for station/object K0FJ-1. If no packets are shown the sender has not sent any weather packets the latest 10 day(s).
| Time | Temp. | Humidity | Pressure | Rain* | Wind** | Luminosity | Snow |
|---|---|---|---|---|---|---|---|
| 1788157203 | 72° F | 78% | 763.3 mmHg | 0.02 in | - | - | - |
| 1788156903 | 71° F | 75% | 763.3 mmHg | 0.01 in | - | - | - |
| 1788156603 | 71° F | 73% | 763.3 mmHg | 0.01 in | - | - | - |
| 1788156303 | 72° F | 74% | 763.5 mmHg | 0.01 in | - | - | - |
| 1788156003 | 73° F | 71% | 763.9 mmHg | 0.01 in | - | - | - |
| 1788155703 | 74° F | 66% | 763.7 mmHg | 0.01 in | - | - | - |
| 1788155403 | 77° F | 64% | 763.6 mmHg | 0 in | - | - | - |
| 1788155103 | 78° F | 60% | 763.1 mmHg | 0 in | - | - | - |
| 1788154803 | 78° F | 56% | 762.8 mmHg | 0 in | - | - | - |
| 1788154503 | 78° F | 56% | 762.8 mmHg | 0 in | - | - | - |
| 1788154203 | 78° F | 56% | 762.7 mmHg | 0 in | - | - | - |
| 1788153903 | 78° F | 56% | 762.4 mmHg | 0 in | - | - | - |
| 1788153603 | 78° F | 56% | 762.4 mmHg | 0 in | - | - | - |
| 1788153303 | 78° F | 57% | 762.2 mmHg | 0 in | - | - | - |
| 1788153003 | 78° F | 55% | 762.1 mmHg | 0 in | - | - | - |
| 1788152703 | 78° F | 55% | 762.1 mmHg | 0 in | - | - | - |
| 1788152404 | 78° F | 55% | 762.1 mmHg | 0 in | - | - | - |
| 1788152103 | 78° F | 55% | 762 mmHg | 0 in | - | - | - |
| 1788151803 | 78° F | 54% | 762 mmHg | 0 in | - | - | - |
| 1788151503 | 78° F | 54% | 761.8 mmHg | 0 in | - | - | - |
| 1788151203 | 78° F | 54% | 761.9 mmHg | 0 in | - | - | - |
| 1788150903 | 79° F | 53% | 762 mmHg | 0 in | - | - | - |
| 1788150603 | 79° F | 53% | 762.1 mmHg | 0 in | - | - | - |
| 1788150303 | 79° F | 53% | 762.1 mmHg | 0 in | - | - | - |
| 1788150003 | 79° F | 53% | 762.1 mmHg | 0 in | - | - | - |
* Rain latest hour (hover to see other rain measurements)
** Current wind speed in m/s (hover to see current wind gust speed)